Location: Newark
(50.8547°N, 2.7256°E)
Time: 18:56:34
(UTC+00:00)

Envisat - Pass Details

Date: 28 January 2020
Orbit: 764 x 766 km, 98.1° (Epoch: 17 February)

Event Time Altitude Azimuth Distance (km) Brightness Sun altitude
Rises 17:17:44 0° 160° (SSE) 3,222 6.2 -7.3°
Reaches altitude 10° 17:20:02 10° 159° (SSE) 2,300 5.5 -7.6°
Maximum altitude 17:25:06 81° 73° (ENE) 783 3.0 -8.4°
Drops below altitude 10° 17:30:12 10° 347° (NNW) 2,315 5.4 -9.2°
Sets 17:32:31 0° 347° (NNW) 3,246 6.2 -9.5°
